Date String (YYYY-MM-DD hh:mm:ss) UTC,Instrument flags,Ambient pressure (hPa),Sample flow (lpm),Bypass flow (lpm),Sample temperature (°C),Ambient temperature (°C),ASC tube jacket temperature (°C),LED temperature (°C),Box temperature (°C),Sample RH (%),Span deviation,Mass concentration (μg/m³),Mass concentration (μg/m³),Mass concentration (μg/m³)
DateTimeUTC,F1_M11,P_M11,Q1_M11,Q2_M11,T1_M11,T2_M11,T3_M11,T4_M11,T5_M11,U1_M11,ZSPAN_M11,X0_M11,X2_M11,X1_M11
2022-04-10 07:00:00,,0812.9,5.01,0.00,27.4,26.1,00.0,36.8,29.0,18.8,0000.0,0012.57,0004.61,0002.26
2022-04-10 07:01:00,,0813.0,5.00,0.00,27.4,26.1,00.0,36.8,29.0,18.9,0000.0,0012.45,0004.54,0002.24
2022-04-10 07:02:00,,0813.0,4.99,0.00,27.3,26.0,00.0,36.7,29.0,19.0,0000.0,0012.37,0004.50,0002.22
2022-04-10 07:03:00,,0813.0,5.01,0.00,27.3,26.0,00.0,36.7,29.0,19.0,0000.0,0012.19,0004.40,0002.17
2022-04-10 07:04:00,,0812.9,5.00,0.00,27.3,25.9,00.0,36.6,28.9,19.2,0000.0,0011.63,0004.25,0002.14
2022-04-10 07:05:00,,0813.1,4.99,0.00,27.2,25.8,00.0,36.6,28.8,19.5,0000.0,0011.50,0004.27,0002.15
2022-04-10 07:06:00,,0813.2,5.02,0.00,27.2,25.8,00.0,36.5,28.8,19.7,0000.0,0011.09,0004.24,0002.18
2022-04-10 07:07:00,,0813.4,4.99,0.00,27.1,25.8,00.0,36.5,28.8,19.6,0000.0,0009.89,0004.25,0002.21
2022-04-10 07:08:00,,0813.5,5.01,0.00,27.1,25.9,00.0,36.5,28.8,19.7,0000.0,0009.94,0004.28,0002.24
2022-04-10 07:09:00,,0813.6,5.00,0.00,27.1,25.8,00.0,36.4,28.7,19.7,0000.0,0010.24,0004.38,0002.28
2022-04-10 07:10:00,,0813.6,5.00,0.00,27.1,25.8,00.0,36.4,28.7,19.7,0000.0,0010.39,0004.49,0002.30
2022-04-10 07:11:00,,0813.5,4.99,0.00,27.0,25.9,00.0,36.4,28.7,19.8,0000.0,0010.44,0004.53,0002.32
2022-04-10 07:12:00,,0813.8,5.01,0.00,27.0,25.8,00.0,36.3,28.6,19.9,0000.0,0010.47,0004.57,0002.33
2022-04-10 07:13:00,,0813.7,4.99,0.00,27.0,25.8,00.0,36.3,28.6,19.9,0000.0,0010.55,0004.62,0002.36
2022-04-10 07:14:00,,0813.7,4.99,0.00,26.9,25.7,00.0,36.3,28.6,20.1,0000.0,0010.83,0004.72,0002.40
2022-04-10 07:15:00,,0813.8,5.01,0.00,26.9,25.7,00.0,36.2,28.5,20.2,0000.0,0011.67,0004.77,0002.42
2022-04-10 07:16:00,,0813.9,5.02,0.00,26.9,25.7,00.0,36.2,28.5,20.3,0000.0,0012.11,0004.82,0002.45
2022-04-10 07:17:00,,0814.2,4.99,0.00,26.8,25.6,00.0,36.1,28.5,20.3,0000.0,0012.33,0004.85,0002.43
2022-04-10 07:18:00,,0814.2,5.00,0.00,26.8,25.6,00.0,36.1,28.4,20.2,0000.0,0012.37,0004.84,0002.40
2022-04-10 07:19:00,,0814.1,5.01,0.00,26.7,25.5,00.0,36.1,28.4,20.2,0000.0,0012.45,0004.88,0002.40
2022-04-10 07:20:00,,0814.2,4.99,0.00,26.7,25.5,00.0,36.0,28.3,20.3,0000.0,0012.32,0004.81,0002.40
2022-04-10 07:21:00,,0814.0,5.00,0.00,26.6,25.4,00.0,36.0,28.3,20.3,0000.0,0012.12,0004.69,0002.39
2022-04-10 07:22:00,,0813.7,5.01,0.00,26.6,25.4,00.0,36.0,28.2,20.2,0000.0,0012.01,0004.64,0002.38
2022-04-10 07:23:00,,0813.8,5.00,0.00,26.6,25.3,00.0,35.9,28.2,20.3,0000.0,0012.01,0004.64,0002.38
2022-04-10 07:24:00,,0813.8,5.00,0.00,26.5,25.3,00.0,35.9,28.2,20.3,0000.0,0012.15,0004.65,0002.38
2022-04-10 07:25:00,,0813.7,5.00,0.00,26.5,25.3,00.0,35.8,28.1,20.4,0000.0,0011.83,0004.55,0002.35
2022-04-10 07:26:00,,0813.9,4.99,0.00,26.4,25.2,00.0,35.8,28.0,20.4,0000.0,0011.15,0004.51,0002.34
2022-04-10 07:27:00,,0813.9,5.03,0.00,26.4,25.1,00.0,35.7,28.0,20.4,0000.0,0010.71,0004.52,0002.33
2022-04-10 07:28:00,,0813.8,5.00,0.00,26.3,25.0,00.0,35.7,27.9,20.4,0000.0,0010.60,0004.50,0002.33
2022-04-10 07:29:00,,0814.0,5.00,0.00,26.2,24.9,00.0,35.7,27.8,20.5,0000.0,0010.70,0004.54,0002.34
2022-04-10 07:30:00,,0814.0,5.00,0.00,26.2,24.8,00.0,35.6,27.8,20.6,0000.0,0010.64,0004.53,0002.34
2022-04-10 07:31:00,,0814.1,4.99,0.00,26.1,24.7,00.0,35.6,27.7,20.7,0000.0,0010.67,0004.58,0002.36
2022-04-10 07:32:00,,0814.4,5.01,0.00,26.1,24.6,00.0,35.5,27.6,20.8,0000.0,0010.88,0004.68,0002.35
2022-04-10 07:33:00,,0814.8,4.99,0.00,26.0,24.7,00.0,35.5,27.7,20.9,0000.0,0011.41,0004.72,0002.33
2022-04-10 07:34:00,,0814.7,5.00,0.00,26.1,24.8,00.0,35.4,27.7,20.9,0000.0,0011.57,0004.70,0002.32
2022-04-10 07:35:00,,0814.7,5.00,0.00,26.1,24.9,00.0,35.4,27.8,20.8,0000.0,0011.53,0004.70,0002.32
2022-04-10 07:36:00,,0814.8,5.01,0.00,26.1,25.1,00.0,35.4,27.9,20.8,0000.0,0011.55,0004.70,0002.33
2022-04-10 07:37:00,,0815.0,5.00,0.00,26.2,25.3,00.0,35.4,27.9,20.7,0000.0,0011.56,0004.69,0002.32
2022-04-10 07:38:00,,0814.9,4.99,0.00,26.2,25.4,00.0,35.4,28.0,20.7,0000.0,0011.71,0004.65,0002.33
2022-04-10 07:39:00,,0815.0,5.00,0.00,26.2,25.5,00.0,35.4,28.1,20.6,0000.0,0011.56,0004.60,0002.32
2022-04-10 07:40:00,,0814.9,5.00,0.00,26.3,25.5,00.0,35.4,28.1,20.6,0000.0,0011.63,0004.55,0002.29
2022-04-10 07:41:00,,0815.0,5.00,0.00,26.3,25.6,00.0,35.4,28.2,20.6,0000.0,0011.76,0004.52,0002.26
2022-04-10 07:42:00,,0815.0,4.99,0.00,26.4,25.7,00.0,35.4,28.2,20.6,0000.0,0011.52,0004.42,0002.21
2022-04-10 07:43:00,,0815.0,5.00,0.00,26.4,25.8,00.0,35.4,28.3,20.6,0000.0,0011.31,0004.37,0002.21
2022-04-10 07:44:00,,0815.0,4.99,0.00,26.4,25.8,00.0,35.4,28.3,20.5,0000.0,0010.97,0004.31,0002.21
2022-04-10 07:45:00,,0815.0,5.01,0.00,26.5,25.8,00.0,35.4,28.3,20.4,0000.0,0011.71,0004.29,0002.22
2022-04-10 07:46:00,,0815.0,5.00,0.00,26.5,25.9,00.0,35.4,28.4,20.4,0000.0,0011.49,0004.24,0002.21
2022-04-10 07:47:00,,0815.2,4.99,0.00,26.6,25.9,00.0,35.4,28.4,20.4,0000.0,0011.54,0004.25,0002.22
2022-04-10 07:48:00,,0815.2,5.00,0.00,26.6,25.9,00.0,35.5,28.5,20.5,0000.0,0011.41,0004.22,0002.22
2022-04-10 07:49:00,,0815.2,5.00,0.00,26.6,26.0,00.0,35.5,28.5,20.4,0000.0,0011.10,0004.22,0002.22
2022-04-10 07:50:00,,0815.2,5.01,0.00,26.6,26.0,00.0,35.5,28.5,20.4,0000.0,0011.04,0004.19,0002.23
2022-04-10 07:51:00,,0815.2,5.00,0.00,26.7,26.0,00.0,35.5,28.5,20.3,0000.0,0010.92,0004.21,0002.24
2022-04-10 07:52:00,,0815.2,5.02,0.00,26.7,26.0,00.0,35.5,28.6,20.3,0000.0,0010.75,0004.21,0002.25
2022-04-10 07:53:00,,0815.3,5.01,0.00,26.7,26.1,00.0,35.6,28.6,20.2,0000.0,0010.91,0004.24,0002.27
2022-04-10 07:54:00,,0815.2,5.00,0.00,26.7,26.1,00.0,35.6,28.6,20.1,0000.0,0010.92,0004.22,0002.27
2022-04-10 07:55:00,,0815.1,4.99,0.00,26.7,26.1,00.0,35.6,28.6,20.2,0000.0,0010.62,0004.22,0002.28
2022-04-10 07:56:00,,0815.1,4.99,0.00,26.7,26.0,00.0,35.6,28.6,20.1,0000.0,0009.63,0004.18,0002.29
2022-04-10 07:57:00,,0815.3,4.99,0.00,26.7,26.0,00.0,35.6,28.5,20.1,0000.0,0009.57,0004.19,0002.31
2022-04-10 07:58:00,,0815.1,5.01,0.00,26.7,25.8,00.0,35.6,28.4,20.1,0000.0,0010.18,0004.30,0002.32
2022-04-10 07:59:00,,0815.1,4.99,0.00,26.7,25.8,00.0,35.6,28.4,20.1,0000.0,0010.71,0004.35,0002.35
